Regional Weather Roundup
Issued by NWS

Home | Current Version | Previous Version | Graphics & Text | Print | Product List | Glossary Off
Versions: 1 2 3 4 5 6 7 8 9 10 11 12 13 14 15 16 17 18 19 20 21 22 23 24 25 26 27 28 29 30 31 32 33 34 35 36 37 38 39 40 41 42 43 44 45 46 47 48 49 50

000
ASUS43 KTOP 220259
RWRKS

WEATHER ROUNDUP FOR KANSAS
NATIONAL WEATHER SERVICE GOODLAND KS
900 PM CST TUE NOV 21 2017

NOTE:  "FAIR" INDICATES FEW OR NO CLOUDS BELOW 12,000 FEET WITH NO
SIGNIFICANT WEATHER AND/OR OBSTRUCTIONS TO VISIBILITY.

KSZ001>006-013>018-027>032-041>047-220400-
NORTHWEST KANSAS

CITY           SKY/WX    TMP DP  RH WIND       PRES   REMARKS
GOODLAND       CLEAR     29  22  75 S6        30.33F
HILL CITY      CLOUDY    28  15  58 CALM      30.39R
RUSSELL        CLOUDY    26  12  55 NE5       30.38S
$$

KSZ061>065-074>080-084>089-220400-
SOUTHWEST KANSAS

CITY           SKY/WX    TMP DP  RH WIND       PRES   REMARKS
DODGE CITY     CLOUDY    29  17  61 N7        30.39R
GARDEN CITY    CLOUDY    33  20  58 NE7       30.38S
GREAT BEND     CLOUDY    28  14  55 N8        30.40R
LIBERAL        CLEAR     29  21  72 N5        30.40R
$$

KSZ066>073-081>083-090>101-220400-
SOUTHEAST KANSAS

CITY           SKY/WX    TMP DP  RH WIND       PRES   REMARKS
CHANUTE        CLEAR     34  17  50 N12       30.36R WCI  25
COFFEYVILLE    CLEAR     37  17  44 N12       30.34R WCI  29
HUTCHINSON     CLOUDY    32  10  40 NE9       30.38R
MEDICINE LODGE   N/A     34  15  46 N3        30.39R
NEWTON         CLEAR     28  14  55 N12       30.41R WCI  18
PARSONS        CLEAR     36  18  48 N13G22    30.36R WCI  27
WICHITA INTL   CLEAR     36  12  37 N16       30.38R WCI  26
WICHITA JABRA  CLEAR     31  13  47 N8        30.39R
WICHITA MCCONL CLEAR     34  10  37 N15       30.37R WCI  24
WINFIELD       CLEAR     36  11  35 N16G22    30.39R WCI  26
$$

KSZ007>012-019>026-033>040-048>060-102>105-220400-
NORTHEAST KANSAS

CITY           SKY/WX    TMP DP  RH WIND       PRES   REMARKS
CONCORDIA      CLOUDY    24  12  60 NE7       30.40F
EMPORIA        CLOUDY    29  14  53 N9        30.39R
LAWRENCE       CLEAR     27  16  63 NW9       30.40R
MANHATTAN      CLOUDY    29  13  51 N5        30.43R
OLATHE IND     CLEAR     29  17  61 N13       30.37R WCI  19
OLATHE EXE     CLEAR     30  15  53 N15G23    30.35R WCI  19
SALINA         CLOUDY    32  13  45 NE10      30.41F WCI  24
TOPEKA BILLARD CLOUDY    28  16  60 NW9       30.41R
TOPEKA FORBES  CLEAR     30  14  51 N12       30.39R WCI  20
$$




USA.gov is the U.S. government's official web portal to all federal, state and local government web resources and services.